Wind_Speed
6 5 5 5 4 4 5 5 5 5 5 6 6 7 7 8 8 8 8 8 8 9 9 9 9 10 10 10 11 11 12 13 13 13 13 14 15 16 17 17 18 19 19
7 6 6 6 6 6 6 6 6 6 6 7 7 8 8 9 9 9 9 9 10 10 10 10 11 11 12 12 13 13 14 14 15 15 15 16 17 17 18 19 20 21 22
8 8 8 7 7 7 7 7 7 7 7 8 8 8 9 9 9 10 10 10 11 11 12 12 13 14 14 15 15 16 16 16 17 17 18 18 18 19 19 20 21 22 23
9 9 9 8 8 8 8 8 8 8 9 9 9 9 10 10 11 11 11 12 12 13 13 14 14 15 15 16 16 17 18 19 19 20 20 21 20 21 22 23 24 24 24
10 10 10 10 10 9 9 9 9 9 10 10 10 10 10 11 12 13 13 13 14 14 14 14 15 15 16 16 17 18 19 20 21 21 22 22 22 23 24 24 25 25 26
11 11 11 11 11 11 10 10 10 10 11 11 11 12 13 13 14 14 14 15 15 15 16 16 16 16 17 18 18 19 20 21 22 23 23 24 24 24 25 25 26 26 27
11 11 11 11 11 11 12 12 12 12 12 12 12 12 13 14 15 15 15 16 16 17 17 17 18 19 19 19 20 20 21 22 23 24 24 24 25 25 26 26 27 27 28
10 11 11 12 12 12 12 13 13 13 12 13 14 14 15 15 16 16 17 17 17 18 18 18 19 20 20 21 21 22 23 24 25 25 25 26 26 27 27 28 28 29 30
11 11 12 12 13 13 13 14 14 14 15 15 15 16 16 16 17 17 18 18 19 19 19 20 20 21 22 23 24 25 25 26 26 26 27 28 29 29 29 30 30 30 30
12 13 13 13 13 14 14 15 15 15 16 16 17 17 18 17 18 18 19 19 20 21 21 22 22 23 24 25 26 26 27 27 27 28 28 29 29 30 30 31 31 31 32
14 14 14 14 14 15 15 15 16 16 17 17 17 17 17 17 17 18 19 21 22 22 23 24 24 25 26 26 27 28 28 29 29 29 29 30 30 31 32 33 33 34 34
15 15 15 15 15 16 16 16 16 17 17 17 18 18 18 19 19 20 21 22 23 23 24 25 26 26 27 27 28 29 29 30 30 30 31 31 32 33 34 35 35 36 36
16 16 16 17 16 17 17 17 18 18 18 18 19 19 19 20 20 21 22 23 24 25 26 26 27 28 28 29 30 30 31 31 31 32 32 33 33 34 35 36 37 37 38
17 18 18 18 18 18 18 19 19 19 20 19 19 20 20 21 22 23 23 24 25 26 26 27 28 29 29 30 30 31 32 32 32 33 33 34 35 36 37 38 38 39 40
18 19 19 19 19 20 20 20 21 21 21 22 22 22 22 22 23 24 25 26 27 27 28 29 29 30 30 30 31 32 31 32 33 34 34 36 37 38 39 40 41 41 43
18 18 19 20 19 20 20 21 21 21 21 22 22 23 24 24 25 25 26 27 27 27 28 29 29 29 29 29 30 31 32 33 34 35 36 37 38 39 40 41 42 43 44
20 19 19 19 20 20 20 21 21 21 21 21 21 22 23 24 25 25 26 27 28 28 28 29 29 30 30 31 31 32 33 34 35 36 37 38 39 40 41 42 43 43 44
21 21 21 21 21 22 22 22 22 22 22 22 22 23 24 25 26 27 28 28 29 29 30 30 31 31 32 33 34 34 35 36 37 38 38 39 40 41 42 43 44 44 45
23 22 23 23 23 23 23 23 23 23 24 24 24 25 26 27 28 29 29 30 30 31 31 32 33 34 34 35 36 36 37 38 38 39 40 41 42 43 44 44 45 46 47
25 24 24 25 24 24 24 24 24 25 25 26 27 27 28 28 29 29 30 31 32 32 33 33 35 36 36 36 37 37 39 40 40 41 42 43 44 44 45 46 46 47 47
26 26 26 26 26 26 26 26 26 27 27 27 28 29 29 30 31 31 32 32 33 33 34 35 36 36 36 37 38 39 40 41 41 42 43 44 45 45 46 47 47 48 48
27 26 26 26 26 26 26 27 27 28 28 29 30 30 31 32 32 33 34 34 34 34 35 35 36 36 37 38 40 41 41 42 43 44 45 45 46 47 48 48 48 48 48
27 27 27 27 27 27 26 27 28 29 29 30 30 31 31 32 33 34 34 34 34 34 35 36 36 37 39 40 41 42 42 43 44 44 45 45 46 47 48 48 48 48 48
28 28 28 28 28 28 28 29 29 30 31 31 31 32 33 33 34 34 34 34 34 35 36 36 37 39 40 41 42 42 43 44 45 45 46 47 47 47 47 47 47 47 47
29 29 29 29 29 29 30 31 31 31 32 32 32 33 33 34 34 34 34 34 35 36 37 38 39 40 41 41 42 42 43 44 45 46 46 47 47 47 46 46 45 45 45
30 31 31 31 31 31 31 32 32 32 32 32 32 33 34 34 34 35 35 36 37 37 37 38 39 40 41 41 42 42 43 45 46 45 45 45 45 44 44 44 44 44 44
Wind_Direction
245 254 258 261 253 247 250 255 262 270 280 286 289 296 303 304 299 298 300 300 303 307 310 313 314 313 310 308 306 306 305 304 301 299 297 293 293 293 291 291 292 290 291
245 253 254 252 248 250 258 261 266 273 279 285 288 292 296 299 298 296 297 296 297 300 303 304 306 307 306 305 304 304 304 303 301 298 296 296 295 294 291 290 291 291 292
246 254 255 253 252 255 259 263 266 272 280 285 289 292 294 295 296 297 297 299 299 298 299 301 302 302 302 302 301 301 301 300 299 297 296 296 296 295 293 291 290 292 294
251 255 256 257 255 258 260 266 271 272 277 282 286 291 292 291 293 295 297 300 302 301 300 300 301 303 303 303 302 301 300 298 298 297 297 297 296 296 294 293 292 292 294
255 255 256 259 258 258 262 270 275 276 279 282 285 287 291 291 291 293 294 297 300 301 302 303 302 303 304 305 304 305 303 301 300 299 297 297 297 297 297 296 294 294 296
257 260 260 259 257 260 265 272 275 276 281 284 287 288 289 290 292 292 294 296 298 298 299 302 303 303 302 304 304 306 305 304 303 301 299 298 297 298 298 297 296 295 296
257 262 261 261 261 265 271 274 277 278 279 281 286 289 290 291 292 293 292 294 296 297 298 298 299 300 303 303 305 306 306 305 304 303 300 299 298 299 299 298 297 297 297
264 262 262 262 264 267 270 272 274 277 282 284 285 287 290 290 290 291 293 295 296 297 297 297 298 298 299 301 303 304 305 305 304 303 302 301 299 298 299 299 299 299 297
264 265 266 267 266 268 270 270 273 278 282 284 286 286 287 289 290 292 294 295 297 298 296 297 298 298 299 299 300 301 302 302 303 302 301 300 299 298 298 298 299 300 300
263 265 266 267 269 269 271 272 274 278 282 284 284 285 284 285 288 290 292 295 297 297 297 297 297 297 297 299 300 300 301 301 301 302 301 301 300 299 299 299 299 299 300
265 266 267 268 270 273 274 273 275 278 281 284 286 285 285 285 289 291 293 294 296 297 297 297 298 299 299 300 301 302 302 301 301 301 300 300 300 300 300 299 299 300 300
267 268 267 269 271 273 274 275 277 280 282 283 284 286 287 287 289 289 291 295 296 296 297 298 297 297 299 300 300 301 301 301 301 301 300 299 299 299 299 300 300 300 301
268 268 271 271 272 273 275 278 280 281 283 284 285 286 287 288 290 292 294 295 298 297 297 299 300 299 298 298 299 300 301 302 301 301 301 300 300 300 300 301 301 301 302
269 269 271 273 274 274 275 279 281 281 282 282 284 285 287 288 289 290 292 294 297 299 299 300 302 302 300 299 300 300 300 301 301 301 301 301 300 300 300 300 300 300 300
270 270 271 274 276 276 278 281 282 282 281 282 282 284 285 287 290 292 295 295 297 298 300 300 302 302 301 300 301 302 302 302 300 300 301 301 301 300 299 299 299 299 300
272 273 274 276 279 281 282 284 284 283 282 283 282 284 286 288 291 294 296 298 300 301 301 301 302 304 304 303 304 304 304 303 302 301 301 301 301 301 300 300 300 301 301
272 273 274 277 280 282 284 285 286 284 285 287 287 288 289 291 293 295 297 298 300 301 302 302 303 304 305 306 305 305 306 306 305 304 303 303 303 303 303 303 303 303 303
271 273 274 277 280 280 282 284 285 285 286 288 289 290 291 293 294 296 297 298 299 301 302 302 303 304 305 306 306 305 305 305 306 306 305 305 305 305 305 305 304 304 304
270 272 274 276 277 279 280 282 284 285 286 287 287 289 290 292 294 296 297 298 299 300 301 301 302 303 304 305 305 305 306 306 306 306 306 306 306 306 306 306 305 305 304
270 271 274 275 276 279 281 282 284 286 287 287 287 288 289 291 293 296 297 299 299 299 299 300 301 302 302 304 305 306 306 307 306 306 307 307 306 306 306 306 305 305 304
272 273 274 275 277 280 280 281 284 287 288 288 289 289 290 291 293 295 297 298 299 299 300 300 301 302 302 304 305 305 306 307 307 307 308 308 308 307 307 307 306 305 304
273 275 276 276 278 279 279 280 282 285 287 288 288 289 291 293 294 295 296 298 299 299 301 303 303 303 303 303 305 305 306 307 308 308 308 308 308 308 308 308 307 307 306
272 275 276 277 278 280 281 282 284 286 288 289 289 290 291 294 295 296 297 298 299 300 302 303 304 304 304 304 305 306 307 308 309 310 310 310 310 310 309 309 309 308 308
273 275 276 277 278 280 282 284 285 287 288 288 288 289 290 292 294 296 297 297 298 299 301 303 304 304 304 305 305 306 308 309 310 310 310 310 311 310 310 310 310 309 309
272 273 274 276 277 279 282 284 286 288 289 288 288 289 291 292 294 296 296 297 298 299 300 302 303 304 305 306 306 307 309 310 311 311 310 310 311 311 311 311 311 311 311
272 273 275 277 277 278 280 282 285 287 288 288 289 290 291 293 295 296 297 298 299 300 301 302 303 305 306 306 307 308 309 311 311 311 311 312 312 312 312 313 313 313 313
Height
5861 5862 5863 5863 5864 5864 5865 5866 5866 5866 5866 5867 5867 5867 5866 5866 5866 5865 5865 5864 5864 5863 5863 5862 5861 5860 5859 5858 5857 5856 5855 5854 5853 5852 5850 5849 5848 5847 5846 5845 5844 5843 5841
5860 5860 5861 5862 5862 5863 5864 5864 5865 5865 5865 5865 5865 5865 5865 5864 5864 5864 5863 5863 5862 5862 5861 5860 5859 5858 5857 5855 5854 5853 5852 5851 5850 5848 5847 5846 5844 5843 5842 5840 5839 5837 5835
5858 5859 5859 5860 5861 5861 5862 5863 5863 5863 5863 5863 5863 5863 5863 5862 5862 5862 5861 5860 5860 5859 5859 5858 5856 5855 5854 5853 5851 5850 5849 5847 5846 5845 5843 5841 5840 5838 5837 5835 5834 5832 5830
5856 5857 5857 5858 5859 5859 5860 5861 5861 5861 5861 5862 5861 5861 5861 5860 5860 5859 5859 5858 5857 5857 5856 5855 5853 5852 5851 5849 5848 5846 5845 5843 5842 5840 5839 5837 5835 5833 5832 5830 5828 5826 5824
5854 5854 5855 5856 5857 5857 5858 5858 5859 5859 5859 5859 5859 5859 5858 5858 5857 5857 5856 5855 5854 5853 5852 5851 5850 5848 5847 5845 5844 5842 5840 5839 5837 5835 5834 5832 5830 5828 5826 5824 5822 5819 5817
5851 5852 5852 5853 5854 5855 5855 5856 5856 5856 5856 5856 5856 5856 5855 5855 5854 5853 5853 5852 5851 5850 5849 5847 5846 5845 5843 5841 5840 5838 5836 5834 5832 5830 5828 5826 5824 5821 5819 5817 5815 5813 5810
5848 5849 5850 5850 5851 5852 5852 5853 5853 5853 5853 5853 5853 5852 5852 5851 5850 5850 5849 5848 5847 5846 5844 5843 5842 5840 5839 5837 5835 5833 5831 5828 5827 5824 5822 5820 5817 5815 5813 5810 5807 5805 5802
5845 5846 5847 5848 5848 5849 5849 5850 5850 5850 5850 5849 5849 5849 5848 5847 5846 5846 5845 5843 5842 5841 5840 5838 5837 5835 5834 5832 5830 5828 5825 5823 5820 5818 5816 5813 5810 5808 5805 5803 5800 5797 5794
5843 5844 5844 5845 5845 5846 5846 5846 5846 5846 5846 5845 5845 5845 5844 5843 5842 5841 5840 5839 5838 5836 5835 5833 5832 5830 5828 5826 5824 5822 5819 5817 5814 5811 5809 5806 5803 5800 5797 5795 5792 5789 5787
5840 5840 5841 5842 5842 5842 5842 5842 5842 5842 5842 5841 5840 5840 5839 5838 5838 5837 5835 5834 5833 5831 5830 5828 5826 5824 5822 5820 5818 5815 5813 5810 5807 5804 5801 5798 5795 5792 5789 5787 5784 5781 5778
5836 5837 5837 5838 5838 5838 5838 5838 5838 5838 5837 5837 5836 5835 5834 5834 5833 5832 5830 5829 5827 5826 5824 5822 5820 5818 5816 5814 5811 5808 5806 5803 5800 5797 5794 5791 5788 5785 5781 5778 5775 5772 5769
5832 5832 5833 5833 5833 5833 5833 5833 5833 5833 5832 5832 5831 5830 5829 5828 5827 5826 5825 5823 5821 5820 5818 5816 5814 5811 5809 5807 5804 5801 5798 5795 5792 5789 5786 5783 5780 5776 5773 5770 5766 5762 5759
5828 5828 5828 5828 5829 5829 5829 5829 5828 5828 5827 5827 5826 5825 5824 5823 5822 5820 5819 5817 5815 5813 5811 5809 5806 5804 5801 5799 5796 5793 5790 5787 5784 5781 5777 5774 5771 5767 5764 5760 5757 5753 5749
5823 5823 5824 5824 5824 5824 5824 5823 5823 5822 5822 5821 5820 5819 5819 5817 5816 5814 5812 5810 5809 5806 5804 5802 5799 5796 5794 5791 5788 5785 5782 5778 5775 5772 5769 5765 5762 5758 5754 5750 5747 5743 5739
5818 5818 5818 5818 5818 5818 5818 5818 5817 5816 5816 5815 5814 5813 5812 5811 5809 5808 5806 5804 5801 5799 5797 5795 5792 5789 5786 5783 5780 5776 5773 5770 5767 5763 5759 5756 5752 5748 5744 5740 5736 5731 5727
5813 5813 5813 5813 5813 5813 5813 5812 5811 5810 5810 5809 5808 5807 5806 5804 5803 5801 5799 5797 5794 5792 5790 5787 5784 5781 5778 5775 5772 5768 5765 5761 5758 5754 5750 5746 5742 5737 5733 5729 5724 5719 5715
5807 5807 5807 5807 5807 5807 5807 5806 5806 5805 5804 5803 5801 5800 5799 5797 5796 5794 5792 5790 5787 5785 5782 5780 5777 5774 5771 5767 5764 5760 5756 5752 5748 5744 5740 5736 5731 5727 5722 5717 5712 5707 5702
5801 5801 5801 5801 5801 5801 5801 5800 5800 5799 5798 5797 5795 5794 5792 5791 5789 5787 5785 5783 5780 5778 5775 5772 5769 5766 5762 5759 5755 5751 5747 5743 5739 5735 5730 5725 5721 5716 5711 5705 5700 5695 5690
5795 5795 5795 5795 5795 5794 5794 5794 5793 5792 5791 5790 5789 5787 5785 5784 5781 5779 5777 5775 5772 5770 5767 5764 5760 5757 5753 5750 5746 5742 5738 5733 5729 5724 5719 5714 5709 5704 5699 5693 5688 5682 5677
5788 5788 5788 5788 5788 5787 5787 5786 5786 5785 5784 5783 5781 5780 5778 5776 5774 5771 5769 5766 5764 5761 5758 5754 5751 5747 5744 5740 5736 5732 5728 5723 5718 5713 5708 5703 5697 5692 5686 5681 5675 5669 5663
5780 5780 5780 5780 5780 5780 5779 5779 5778 5777 5776 5775 5773 5771 5769 5767 5765 5763 5760 5757 5755 5752 5748 5745 5741 5737 5734 5730 5726 5722 5717 5712 5707 5702 5697 5691 5685 5680 5674 5668 5662 5656 5650
5773 5773 5772 5772 5772 5772 5771 5770 5770 5768 5767 5766 5764 5762 5760 5758 5756 5754 5751 5748 5745 5742 5738 5735 5731 5728 5724 5720 5716 5711 5706 5701 5696 5690 5685 5678 5673 5667 5661 5654 5648 5642 5636
5764 5764 5764 5764 5764 5763 5763 5762 5761 5760 5758 5757 5755 5753 5751 5749 5747 5744 5741 5738 5735 5732 5729 5725 5721 5718 5713 5709 5704 5700 5695 5689 5684 5678 5672 5666 5660 5654 5648 5641 5635 5629 5623
5756 5756 5756 5756 5756 5755 5754 5753 5752 5751 5749 5747 5746 5744 5742 5740 5737 5734 5731 5728 5725 5722 5719 5715 5711 5707 5703 5698 5693 5688 5683 5677 5672 5666 5660 5654 5648 5641 5635 5629 5622 5616 5610
5747 5747 5747 5747 5747 5746 5745 5744 5743 5741 5739 5738 5736 5734 5732 5730 5727 5724 5721 5718 5715 5712 5709 5705 5701 5696 5692 5687 5682 5677 5671 5665 5659 5653 5647 5641 5635 5629 5623 5617 5610 5604 5598
5738 5738 5738 5737 5737 5736 5735 5734 5733 5732 5730 5728 5726 5724 5722 5720 5717 5715 5712 5708 5705 5702 5698 5694 5690 5686 5681 5676 5671 5665 5660 5654 5648 5641 5635 5629 5623 5617 5611 5605 5599 5593 5587